Vorticity
4 7 11 10 6 5 10 10 2 -6 14 11 8 3 18 -3 9 -79 6 7 12 9 9 11 7 7 7 9 10 9 6 5 6 4 6 6 8 7 9 8 9 10 12 7
9 5 6 10 9 4 3 8 15 5 -11 1 4 -7 -18 11 8 -3 -24 3 6 4 7 7 8 10 6 9 13 11 7 2 7 8 6 5 5 6 6 9 7 11 10 1
8 8 5 5 8 10 4 3 11 14 -0 5 1 5 10 -3 9 22 -5 7 -1 7 8 7 11 8 11 9 11 11 5 3 3 10 7 5 6 6 7 8 11 10 10 6
9 5 9 7 3 5 9 7 3 15 0 -8 1 9 8 4 3 16 -5 27 4 2 5 12 15 10 8 9 15 10 7 2 8 6 8 5 6 6 9 8 10 10 9 7
4 6 6 10 8 4 4 10 4 4 4 10 -3 -2 10 15 -8 6 42 49 7 -5 4 6 12 9 10 8 12 8 11 3 2 8 8 6 7 6 9 11 12 9 6 6
7 6 5 5 6 9 3 5 9 4 4 -2 17 -6 -7 -1 25 4 3 78 -28 7 2 4 5 10 26 14 7 11 9 8 1 3 7 7 6 4 4 7 6 3 5 4
11 12 15 8 5 5 10 4 4 8 4 5 7 4 7 3 -4 12 2 18 59 -11 5 2 1 5 6 20 14 9 10 14 7 3 6 7 5 2 3 3 5 4 4 3
9 5 11 18 12 7 2 12 6 3 5 6 4 4 4 13 7 5 -9 0 9 2 42 6 -1 4 2 14 16 16 7 11 13 8 5 6 7 4 2 3 2 3 3 4
11 13 5 4 7 6 28 6 15 12 6 3 -2 15 5 31 30 3 1 -6 -5 12 19 4 -1 -6 6 1 6 11 18 7 9 11 8 7 6 6 4 5 3 3 4 4
17 16 20 6 2 18 -4 11 13 17 14 4 3 -0 -8 -5 -8 23 25 27 11 -5 -1 18 -4 -2 -3 3 4 5 9 26 7 12 7 6 7 6 5 4 5 4 3 5
8 8 8 13 28 12 38 8 4 6 3 3 11 5 7 -13 -4 14 13 3 7 18 11 24 45 -4 2 2 4 5 6 11 22 7 10 7 9 8 7 5 6 5 4 4
18 13 11 2 -2 4 -0 4 13 5 4 8 2 3 26 -16 13 21 -1 -4 9 8 11 14 17 79 9 -1 7 -0 3 10 16 15 9 7 7 7 7 8 6 7 6 5
13 16 18 23 13 34 11 19 12 13 16 6 17 7 4 -13 -9 3 15 2 -1 6 10 9 32 19 18 -3 6 7 2 4 11 23 14 11 6 6 6 7 5 6 8 7
11 1 16 14 -0 -11 -2 10 12 18 4 10 -4 15 8 -7 -13 -1 32 6 12 -1 5 17 13 14 19 20 -10 5 4 8 5 10 20 18 10 6 6 9 6 6 7 8
33 20 9 8 4 17 -1 -6 -5 13 14 8 5 11 6 -1 -7 -6 4 22 2 10 -5 -1 19 7 15 12 -10 12 -1 9 10 -2 10 17 19 9 6 6 7 7 8 7
30 36 42 12 4 13 10 11 -2 6 1 19 12 9 5 13 -11 -3 7 -8 22 9 4 -14 -1 22 29 -2 -0 19 3 -11 7 5 7 10 21 20 9 5 3 6 6 6
43 19 25 52 38 24 19 3 13 11 13 11 15 15 15 1 -2 -7 1 3 4 -26 24 -1 -2 9 31 1 45 -23 4 3 1 7 7 10 14 25 19 8 6 5 9 5
6 30 1 -5 -1 34 30 16 9 13 8 12 2 10 28 9 6 -15 -1 -2 -1 9 -1 -5 -3 -2 25 16 18 -23 -1 2 -2 3 4 10 10 21 24 14 9 7 9 7
2 6 29 16 17 22 41 29 23 10 1 13 9 12 13 17 20 -2 3 -2 3 23 -4 -15 -11 -2 -3 -7 30 55 22 -10 8 11 3 9 14 15 26 19 11 10 7 8
16 4 7 8 16 33 17 13 20 50 25 -1 0 10 6 19 24 15 -6 10 16 25 2 9 6 12 9 11 13 8 15 35 7 5 5 4 9 13 18 18 12 9 10 9
17 15 12 13 11 24 13 12 5 24 34 17 10 4 10 1 10 34 -7 5 14 -22 -5 15 8 5 7 18 -4 22 53 -19 -5 12 3 4 3 8 12 12 13 13 10 10
16 23 10 8 7 13 16 27 9 17 33 19 19 17 9 7 4 2 37 -13 -12 8 9 8 26 8 -6 -3 19 13 -18 -1 7 5 3 4 4 4 9 9 10 9 11 11
14 7 17 16 17 7 15 18 21 21 21 16 24 18 17 8 8 6 -4 30 -4 6 5 13 -2 27 29 23 2 18 -9 4 12 7 -0 9 6 4 3 7 7 11 11 10
17 25 25 14 17 25 20 33 11 9 11 30 38 39 22 10 15 4 10 -4 32 -2 2 -3 -26 -2 -7 4 25 5 19 8 3 11 7 4 4 3 5 5 4 8 7 11
20 24 29 22 9 8 12 22 20 23 9 14 19 24 33 60 14 8 8 19 22 17 -9 13 -57 17 9 19 31 14 19 16 4 10 11 3 3 2 1 6 2 7 4 8
6 2 21 27 26 32 23 12 20 25 27 20 35 15 56 21 25 62 2 3 -5 17 33 -13 13 -14 17 13 9 7 11 15 8 8 11 6 1 1 2 2 4 9 8 3
Height
5840 5843 5848 5852 5856 5858 5860 5862 5865 5870 5876 5876 5877 5880 5882 5886 5892 5888 5890 5891 5896 5897 5899 5905 5906 5910 5914 5915 5918 5921 5924 5927 5932 5933 5935 5938 5940 5943 5944 5943 5946 5947 5948 5949
5835 5839 5844 5846 5849 5853 5855 5859 5865 5868 5872 5879 5877 5878 5881 5883 5888 5889 5870 5884 5894 5895 5898 5901 5905 5910 5915 5917 5918 5921 5925 5928 5933 5935 5937 5938 5942 5944 5946 5946 5947 5949 5950 5950
5827 5835 5836 5839 5843 5847 5850 5854 5861 5865 5867 5869 5875 5877 5877 5880 5883 5883 5872 5887 5890 5893 5898 5899 5904 5909 5913 5918 5918 5921 5925 5929 5933 5937 5939 5941 5942 5944 5947 5948 5950 5950 5951 5952
5821 5826 5828 5833 5837 5841 5845 5850 5855 5859 5860 5862 5871 5875 5876 5878 5878 5882 5885 5889 5891 5892 5898 5900 5903 5907 5912 5915 5919 5921 5923 5929 5933 5937 5940 5941 5943 5944 5947 5949 5950 5952 5953 5953
5814 5818 5821 5826 5832 5835 5841 5844 5848 5852 5854 5857 5860 5866 5872 5873 5877 5882 5881 5881 5893 5894 5893 5900 5901 5905 5910 5913 5917 5920 5923 5928 5933 5936 5940 5943 5945 5946 5948 5950 5951 5953 5955 5955
5804 5809 5812 5818 5823 5828 5832 5837 5841 5843 5845 5847 5859 5859 5865 5868 5875 5879 5881 5880 5890 5893 5890 5898 5899 5901 5908 5911 5916 5920 5924 5927 5932 5935 5939 5942 5945 5947 5949 5951 5952 5953 5956 5958
5792 5800 5806 5810 5814 5819 5824 5828 5832 5836 5840 5846 5856 5854 5862 5865 5871 5875 5879 5881 5881 5889 5891 5892 5896 5901 5905 5908 5913 5917 5922 5926 5931 5935 5938 5941 5944 5946 5949 5951 5953 5955 5958 5959
5779 5789 5795 5801 5806 5812 5815 5821 5824 5830 5837 5843 5848 5847 5860 5866 5862 5869 5873 5875 5873 5878 5882 5889 5892 5897 5901 5905 5909 5912 5918 5923 5928 5932 5936 5940 5944 5946 5948 5951 5953 5955 5958 5959
5769 5778 5782 5789 5794 5802 5811 5812 5822 5822 5829 5827 5837 5845 5853 5859 5860 5864 5866 5869 5872 5876 5881 5887 5891 5889 5897 5902 5905 5908 5913 5918 5923 5928 5933 5937 5941 5945 5948 5950 5952 5954 5956 5959
5762 5772 5777 5777 5782 5789 5796 5810 5806 5811 5817 5819 5829 5839 5848 5857 5859 5858 5862 5864 5870 5875 5879 5886 5890 5886 5888 5896 5901 5904 5907 5913 5917 5922 5929 5934 5938 5941 5945 5948 5951 5953 5955 5958
5755 5760 5771 5770 5776 5783 5787 5793 5796 5804 5807 5810 5819 5830 5845 5848 5852 5853 5859 5863 5865 5867 5871 5871 5880 5884 5885 5885 5893 5901 5905 5909 5913 5919 5924 5930 5935 5939 5942 5946 5949 5951 5954 5956
5747 5752 5758 5761 5764 5767 5771 5780 5786 5789 5800 5806 5809 5828 5845 5838 5840 5840 5850 5853 5856 5858 5860 5858 5869 5875 5880 5884 5890 5894 5899 5906 5909 5912 5917 5924 5928 5933 5939 5943 5946 5948 5951 5954
5736 5742 5747 5758 5761 5760 5760 5766 5776 5781 5788 5793 5797 5819 5828 5833 5838 5830 5829 5833 5842 5846 5850 5856 5858 5866 5876 5880 5884 5892 5892 5897 5904 5908 5912 5918 5924 5930 5935 5939 5942 5945 5948 5951
5720 5728 5735 5744 5743 5740 5746 5750 5758 5765 5773 5782 5786 5805 5823 5821 5825 5829 5825 5827 5831 5835 5840 5851 5853 5858 5864 5873 5882 5887 5888 5889 5898 5903 5907 5912 5918 5923 5928 5933 5937 5941 5944 5947
5707 5708 5716 5724 5728 5732 5737 5738 5745 5753 5761 5767 5782 5791 5804 5806 5810 5814 5819 5821 5822 5830 5839 5842 5842 5846 5860 5867 5878 5885 5884 5883 5893 5899 5903 5906 5911 5915 5920 5926 5931 5935 5940 5943
5694 5693 5696 5704 5709 5717 5720 5728 5732 5740 5752 5755 5763 5776 5788 5783 5791 5799 5808 5816 5814 5820 5827 5835 5835 5843 5857 5865 5869 5875 5882 5874 5887 5894 5897 5899 5904 5909 5915 5920 5925 5929 5933 5937
5685 5683 5684 5689 5690 5695 5701 5718 5725 5730 5738 5743 5748 5758 5768 5763 5778 5786 5795 5807 5813 5814 5818 5824 5825 5837 5849 5853 5856 5866 5871 5867 5877 5887 5890 5895 5898 5902 5909 5914 5918 5923 5928 5931
5678 5677 5676 5678 5677 5676 5701 5699 5706 5711 5719 5730 5729 5737 5753 5748 5765 5779 5787 5792 5797 5805 5811 5817 5816 5826 5834 5839 5845 5854 5860 5861 5865 5879 5886 5890 5893 5896 5900 5906 5913 5917 5921 5926
5671 5671 5670 5667 5668 5673 5677 5689 5695 5695 5704 5714 5713 5714 5739 5734 5758 5775 5770 5781 5788 5793 5799 5805 5806 5818 5828 5826 5830 5824 5819 5832 5858 5865 5880 5884 5887 5890 5894 5900 5905 5910 5914 5918
5667 5665 5664 5662 5661 5664 5680 5675 5672 5669 5681 5698 5691 5700 5726 5728 5739 5759 5764 5772 5777 5778 5782 5793 5800 5807 5816 5812 5820 5817 5815 5837 5855 5867 5868 5876 5880 5884 5889 5891 5895 5900 5906 5911
5661 5659 5658 5656 5654 5655 5654 5660 5659 5661 5677 5678 5682 5687 5703 5711 5727 5739 5748 5756 5764 5767 5773 5784 5796 5798 5801 5806 5816 5831 5835 5845 5850 5858 5862 5865 5874 5879 5882 5885 5888 5893 5898 5902
5656 5655 5653 5650 5649 5648 5647 5651 5647 5653 5662 5664 5670 5674 5681 5691 5709 5718 5729 5739 5743 5753 5759 5771 5780 5788 5788 5795 5804 5814 5812 5829 5841 5847 5855 5860 5868 5873 5875 5878 5881 5886 5890 5894
5652 5650 5648 5646 5645 5640 5640 5640 5640 5639 5645 5647 5648 5658 5662 5670 5685 5699 5708 5717 5726 5738 5751 5761 5769 5775 5780 5786 5796 5807 5816 5822 5830 5837 5844 5854 5861 5866 5868 5871 5874 5878 5882 5886
5649 5645 5642 5641 5638 5635 5633 5631 5630 5629 5628 5630 5634 5639 5644 5647 5658 5677 5689 5696 5705 5724 5737 5744 5746 5758 5770 5779 5786 5799 5807 5812 5821 5830 5840 5845 5850 5856 5860 5864 5868 5871 5875 5879
5649 5644 5639 5635 5632 5631 5627 5625 5622 5621 5620 5620 5620 5622 5623 5623 5637 5653 5664 5674 5693 5710 5720 5730 5739 5746 5756 5766 5776 5788 5796 5803 5811 5820 5828 5836 5842 5846 5850 5855 5859 5865 5869 5872
5648 5643 5639 5633 5628 5624 5622 5618 5615 5612 5609 5606 5604 5606 5607 5604 5612 5627 5645 5656 5678 5691 5703 5714 5726 5734 5741 5753 5765 5774 5783 5791 5800 5808 5815 5822 5829 5836 5842 5846 5851 5857 5861 5864